sat.trackr.live / text

‹ back to catalog

STARLINK-5952

NORAD 56923 · 2023-083AZ

PAYLOAD ACTIVE UNKNOWN

§ Identity

Operator
Country
US
Launch date
2023-06-12
Launch site
AFETR
Launch vehicle
Mass (kg)
RCS (m²)

Purposes: comms

External: N2YO · Heavens-Above · Gunter

§ Orbital elements

Epoch: 2026-05-24T22:54:00.744192Z

Period
94.27 min
Inclination
43.0014°
Eccentricity
0.0001186
Mean motion
15.27581220 rev/d
Perigee alt
482.2 km
Apogee alt
483.9 km
Semi-major
6,861.2 km
B*
1.9036e-4
RAAN
359.8138°
Arg perigee
255.2913°
Mean anomaly
104.7807°
Rev number
16,346

§ Raw data

STARLINK-59521 56923U 23083AZ  26144.95417528  .00004980  00000+0  19036-3 0  99912 56923  43.0014 359.8138 0001186 255.2913 104.7807 15.27581220163469

JSON: /api/v1/satellites/56923 · /tle

For live sub-satellite position, see the globe view (requires WebGL).

§ Visibility from observer

Set your observer location to see the next 7 days of passes ≥ 10°. The values pass through the URL so the page stays shareable.

No JS? Fill the form by hand. The geolocation button needs JavaScript.